User: anonymous   Login
Location: Huntsville
(41.2590°N, 111.7678°W)
Time: 05:04:32
(UTC+00:00)
Language:

N. Korean satellite - Orbit

View from above orbital plane
View from above orbital plane
View from above satellite
View from above satellite

Ground track
Ground track

The orbit data is extracted from the following two-line orbital elements,

1 39026U 12072A   22025.50130167  .00008170  00000-0  25991-3 0  9991
2 39026  97.2610  18.4326 0032096 314.3865  45.4749 15.32346170507008
Epoch (UTC): 25 January 2022 12:01:52
Eccentricity: 0.0032096
inclination: 97.2610°
perigee height: 447 km
apogee height: 491 km
right ascension of ascending node: 18.4326°
argument of perigee: 314.3865°
revolutions per day: 15.32346170
mean anomaly at epoch: 45.4749°
orbit number at epoch: 50700

The dashed part of the orbit path shows where the satellite is in the earth's shadow,  

DLR